Regional Weather Roundup
Issued by NWS

Home | Current Version | Previous Version | Text Only | Print | Product List | Glossary Off
Versions: 1 2 3 4 5 6 7 8 9 10 11 12 13 14 15 16 17 18 19 20 21 22 23 24 25 26 27

000
ASUS45 KCYS 200610
RWRWY

WYOMING REGIONAL WEATHER ROUNDUP
NATIONAL WEATHER SERVICE CHEYENNE WY
1200 AM MDT SUN AUG 20 2017

NOTE:  "FAIR" INDICATES FEW OR NO CLOUDS BELOW 12,000 FEET
WITH NO SIGNIFICANT WEATHER AND/OR OBSTRUCTIONS TO VISIBILITY.

WYZ001-200700-
YELLOWSTONE NATIONAL PARK

CITY           SKY/WX    TMP DP  RH WIND       PRES   REMARKS
LK YELLOWSTONE   N/A     43  35  73 CALM      30.23S
6HR MIN TEMP:  43; 6HR MAX TEMP:  69;

W YELLOWSTONE  NOT AVBL

$$
WYZ002>013-054>058-071-098>099-200700-
NORTHERN WYOMING

CITY           SKY/WX    TMP DP  RH WIND       PRES   REMARKS
JACKSON        FAIR      47  32  56 N3        30.15R
CODY           FAIR      57  35  43 S5        30.05R
GREYBULL       FAIR      69  34  27 VRB3      29.93R
6HR MIN TEMP:  68; 6HR MAX TEMP:  90;

WORLAND        FAIR      67  36  31 S7        29.95S
6HR MIN TEMP:  65; 6HR MAX TEMP:  89;

SHERIDAN       FAIR      59  41  51 CALM      30.03R
6HR MIN TEMP:  57; 6HR MAX TEMP:  84;

BUFFALO        FAIR      62  34  35 NW3       30.09R
6HR MIN TEMP:  62; 6HR MAX TEMP:  80;

GILLETTE       FAIR      68  39  34 N8        30.01R
6HR MIN TEMP:  67; 6HR MAX TEMP:  83;

HULETT         FAIR      70  37  30 NE8       30.05R
NEWCASTLE      FAIR      72  32  23 E9        29.95S

$$
WYZ014>020-022>026-101>103-200700-
CENTRAL WYOMING

CITY           SKY/WX    TMP DP  RH WIND       PRES   REMARKS
BIG PINEY      FAIR      47  32  56 W3        30.22S
6HR MIN TEMP:  46; 6HR MAX TEMP:  80;

PINEDALE       FAIR      45  32  61 NW3       30.24R
DUBOIS         FAIR      54  23  30 NW7       30.20S
LANDER           N/A    N/A N/A N/A MISG      30.09R
RIVERTON       FAIR      66  22  18 NW8       30.07R
6HR MIN TEMP:  65; 6HR MAX TEMP:  89;

CASPER         FAIR      59  34  39 NW10      30.06R
6HR MIN TEMP:  59; 6HR MAX TEMP:  89;

DOUGLAS        FAIR      62  37  39 S8        29.99R
6HR MIN TEMP:  62; 6HR MAX TEMP:  89;


$$
WYZ021-027>030-104>119-200700-
SOUTHERN WYOMING

CITY           SKY/WX    TMP DP  RH WIND       PRES   REMARKS
EVANSTON       FAIR      63  32  31 S7        30.23R
6HR MIN TEMP:  62; 6HR MAX TEMP:  81;

FORT BRIDGER   FAIR      61  32  32 SW10      30.24S
ROCK SPRINGS   FAIR      66  32  28 CALM      30.20R
6HR MIN TEMP:  63; 6HR MAX TEMP:  83;

RAWLINS        FAIR      62  21  20 SW3       30.18R
6HR MIN TEMP:  61; 6HR MAX TEMP:  82;

SARATOGA       FAIR      55  32  41 E3        30.22R
LARAMIE        FAIR      51  32  48 S12       30.21S
6HR MIN TEMP:  51; 6HR MAX TEMP:  80;

CHEYENNE       FAIR      59  31  34 W8        30.11S
6HR MIN TEMP:  59; 6HR MAX TEMP:  86;

TORRINGTON     FAIR      62  44  51 NE5       29.95R
6HR MIN TEMP:  60; 6HR MAX TEMP:  93;

PINE BLUFFS    FAIR      54  41  62 CALM      30.06R

$$




USA.gov is the U.S. government's official web portal to all federal, state and local government web resources and services.